x

9439040 - Astoria, Or (asto3) Weather Station

6:48 - Tue 25th Jul 2017 All times are PDT. -7 hours from GMT.

  • Wind
    10mph, 11mph gusts
  • Sea Temp 69°f
  • Air Temp 67°f
  • Sea Pressure 1016.7mb
  • 9439040 - Astoria, Or
  • 9439040 - Astoria, Or

More Historic Weather Station data

Upgrade to MSW Pro to gain access to the past 30 days of data for over 8000 Wavebouys and Weather Stations around the globe.

Join Pro

Comparision Forecast

View Surf forecast
   
mar. 07/25 6:48 10 11 mph 1016.7mb 69f 67f
6:42 8 9 mph 1016.8mb 69f 67f
6:36 6 8 mph 1016.7mb 69f 68f
6:30 10 14 mph 1016.8mb 69f 67f
6:24 13 15 mph 1016.8mb 69f 66f
6:18 10 14 mph 1016.8mb 69f 66f
6:12 13 17 mph 1016.8mb 69f 66f
6:06 14 16 mph 1016.9mb 69f 66f
6:00 14 16 mph 1016.9mb 69f 65f
5:48 13 14 mph 1016.8mb 69f 67f
5:42 11 15 mph 1016.9mb 70f 67f
5:36 14 15 mph 1016.9mb 70f 66f
5:30 13 15 mph 1016.9mb 70f 67f
5:24 13 15 mph 1016.9mb 70f 67f
5:18 13 15 mph 1016.9mb 70f 66f
5:12 14 17 mph 1016.9mb 69f 66f
5:06 14 16 mph 1016.9mb 69f 66f
5:00 14 18 mph 1016.8mb 69f 66f
4:48 15 17 mph 1016.9mb 69f 66f
4:42 16 18 mph 1016.9mb 70f 65f
4:36 15 18 mph 1016.9mb 70f 65f
4:30 16 18 mph 1016.9mb 70f 65f
4:24 16 20 mph 1016.9mb 70f 65f
4:18 17 20 mph 1016.9mb 70f 65f
4:12 17 21 mph 1017mb 70f 65f
4:06 17 20 mph 1017.1mb 70f 64f
4:00 17 21 mph 1017.1mb 70f 64f
3:54 17 20 mph 1017.1mb 70f 64f
3:48 17 20 mph 1017.1mb 71f 65f
3:42 18 21 mph 1017.1mb 71f 64f
3:36 17 21 mph 1017.1mb 71f 65f
3:30 18 21 mph 1017.1mb 71f 64f
3:24 17 20 mph 1017.1mb 71f 64f
3:18 17 20 mph 1017.1mb 71f 65f
3:12 17 21 mph 1017mb 71f 65f
3:06 18 21 mph 1017.1mb 71f 65f
3:00 18 21 mph 1017.1mb 71f 65f
2:54 17 22 mph 1017.1mb 71f 65f
2:48 18 22 mph 1017.2mb 72f 64f
2:42 18 21 mph 1017.2mb 72f 65f
2:36 17 20 mph 1017.2mb 72f 65f
2:30 17 21 mph 1017.2mb 72f 65f
2:24 17 20 mph 1017.2mb 72f 65f
2:18 17 21 mph 1017.2mb 72f 65f
2:12 15 20 mph 1017.2mb 72f 65f
2:06 17 18 mph 1017.2mb 72f 65f
2:00 16 21 mph 1017.2mb 72f 65f
1:54 17 20 mph 1017.3mb 72f 64f
1:48 16 21 mph 1017.3mb 72f 65f
1:42 16 20 mph 1017.3mb 72f 65f
1:36 16 20 mph 1017.4mb 72f 65f
1:30 15 20 mph 1017.4mb 72f 65f
1:24 15 18 mph 1017.4mb 72f 65f
1:18 17 20 mph 1017.4mb 72f 65f
1:12 15 18 mph 1017.4mb 72f 65f
1:06 16 20 mph 1017.4mb 72f 65f
1:00 15 18 mph 1017.4mb 72f 64f
12:54 15 18 mph 1017.4mb 72f 64f
12:48 16 17 mph 1017.5mb 72f 64f
12:42 16 18 mph 1017.6mb 72f 64f
12:36 15 17 mph 1017.6mb 71f 64f
12:30 15 18 mph 1017.6mb 71f 64f
12:24 15 17 mph 1017.6mb 71f 64f
12:18 15 17 mph 1017.6mb 71f 64f
12:12 15 17 mph 1017.7mb 71f 64f
12:06 15 18 mph 1017.7mb 71f 63f
12:00 14 16 mph 1017.7mb 71f 63f
11:54 14 16 mph 1017.8mb 71f 63f
11:48 14 16 mph 1017.7mb 71f 63f
11:42 14 16 mph 1017.8mb 71f 63f
11:36 13 15 mph 1017.7mb 71f 63f
11:30 13 14 mph 1017.7mb 71f 63f
11:24 11 14 mph 1017.8mb 71f 63f
11:18 10 13 mph 1017.7mb 71f 63f
11:12 10 13 mph 1017.7mb 71f 62f
11:06 10 13 mph 1017.8mb 71f 62f
11:00 10 11 mph 1017.7mb 71f 62f
10:54 10 11 mph 1017.7mb 71f 62f
10:48 8 10 mph 1017.7mb 71f 62f
10:42 8 9 mph 1017.8mb 71f 62f
10:36 7 9 mph 1017.8mb 71f 62f
10:30 6 8 mph 1017.8mb 71f 61f
10:24 6 9 mph 1017.8mb 71f 61f
10:18 6 7 mph 1017.8mb 71f 61f
10:12 3 6 mph 1017.8mb 70f 62f
10:06 3 5 mph 1017.8mb 70f 62f
10:00 2 3 mph 1017.7mb 70f 62f
9:54 2 5 mph 1017.7mb 70f 61f
9:48 2 5 mph 1017.7mb 70f 61f
9:42 1 3 mph 1017.7mb 70f 61f
9:36 3 6 mph 1017.6mb 70f 60f
9:30 5 6 mph 1017.6mb 70f 61f
9:24 5 6 mph 1017.6mb 69f 61f
9:18  -  1 mph 1017.6mb 69f 61f
9:12 1 2 mph 1017.6mb 69f 61f
9:06 2 5 mph 1017.6mb 69f 60f
9:00 2 3 mph 1017.6mb 69f 61f
8:54  -  1 mph 1017.6mb 68f 61f
8:48  -  1 mph 1017.6mb 68f 61f
8:42 1 2 mph 1017.6mb 68f 60f
8:36 2 2 mph 1017.6mb 68f 60f
8:30  -  2 mph 1017.5mb 68f 60f
8:24 1 3 mph 1017.4mb 68f 60f
8:18 1 2 mph 1017.4mb 68f 60f
8:12 1 3 mph 1017.4mb 68f 59f
8:06 3 6 mph 1017.4mb 68f 59f
8:00 3 6 mph 1017.3mb 68f 59f
7:54 2 5 mph 1017.3mb 68f 59f
7:48 5 6 mph 1017.3mb 68f 59f
7:42 3 6 mph 1017.3mb 68f 59f
7:36 3 5 mph 1017.2mb 68f 59f
7:30 2 3 mph 1017.2mb 68f 59f
7:24  -  2 mph 1017.2mb 68f 59f
7:18  -  3 mph 1017.1mb 68f 59f
7:12 2 6 mph 1017.1mb 68f 59f
7:06 6 7 mph 1017mb 68f 59f
7:00 3 6 mph 1017mb 67f 59f
6:54 5 6 mph 1017mb 68f 59f
6:48 3 7 mph 1017mb 68f 59f
6:42 6 8 mph 1016.9mb 68f 59f
6:36 2 5 mph 1016.9mb 68f 59f
6:30 2 3 mph 1016.9mb 68f 59f
6:24 2 3 mph 1016.9mb 68f 59f
6:18 1 2 mph 1016.9mb 68f 59f
6:12  -  2 mph 1016.8mb 68f 59f
6:06 2 3 mph 1016.8mb 68f 59f
6:00 2 5 mph 1016.8mb 68f 59f
5:54 3 5 mph 1016.7mb 68f 59f
5:48  -  2 mph 1016.7mb 68f 58f
5:42 3 3 mph 1016.8mb 68f 58f
5:36 2 5 mph 1016.8mb 68f 58f
5:30 2 3 mph 1016.8mb 69f 59f
5:24 1 3 mph 1016.7mb 69f 59f
5:18 2 2 mph 1016.7mb 69f 59f
5:12 2 3 mph 1016.7mb 69f 59f
5:06 2 3 mph 1016.6mb 69f 59f
5:00 1 3 mph 1016.5mb 69f 59f
4:54 1 3 mph 1016.5mb 70f 59f
4:48 3 5 mph 1016.6mb 70f 59f
4:42 1 3 mph 1016.5mb 70f 59f
4:36 2 5 mph 1016.4mb 70f 59f
4:30 2 3 mph 1016.4mb 70f 59f
4:24 1 2 mph 1016.4mb 70f 59f
4:18 2 3 mph 1016.4mb 70f 59f
4:12 3 6 mph 1016.4mb 70f 59f
4:06 5 6 mph 1016.3mb 69f 59f
4:00 3 6 mph 1016.3mb 69f 59f
3:54 5 6 mph 1016.3mb 69f 59f
3:48 6 8 mph 1016.2mb 69f 59f
3:42 7 10 mph 1016.3mb 69f 59f
3:36 6 8 mph 1016.3mb 69f 59f
3:30 5 8 mph 1016.3mb 69f 59f
3:24 6 8 mph 1016.3mb 69f 59f
3:18 6 8 mph 1016.3mb 69f 59f
3:12 7 8 mph 1016.3mb 69f 59f
3:06 1 2 mph 1016.3mb 69f 59f
3:00 2 5 mph 1016.3mb 69f 59f
2:54 2 7 mph 1016.3mb 69f 59f
2:48 6 7 mph 1016.2mb 69f 59f
2:42 2 3 mph 1016.2mb 69f 59f
2:36 2 5 mph 1016.1mb 70f 59f
2:30 3 5 mph 1016.1mb 69f 59f
2:24 2 5 mph 1016.1mb 69f 59f
2:18 2 3 mph 1016.1mb 69f 59f
2:12  -  3 mph 1016mb 69f 60f
2:06 2 5 mph 1016mb 69f 59f
2:00 2 5 mph 1016mb 69f 60f
1:54 3 6 mph 1016.1mb 69f 60f
1:48 3 7 mph 1016.1mb 70f 59f
1:42 3 6 mph 1016mb 71f 59f
1:36 3 7 mph 1016mb 71f 60f
1:30 6 7 mph 1016mb 71f 59f
1:24 6 8 mph 1016.1mb 71f 59f
1:18 7 8 mph 1016.1mb 71f 59f
1:12 6 7 mph 1016.1mb 71f 60f
1:06 6 7 mph 1016.1mb 71f 60f
1:00 6 8 mph 1016.2mb 71f 60f
12:54 7 8 mph 1016.2mb 71f 60f
12:48 7 8 mph 1016.2mb 71f 60f
12:42 6 8 mph 1016.3mb 71f 60f
12:36 7 7 mph 1016.3mb 71f 60f
12:30 8 8 mph 1016.3mb 71f 60f
12:24 7 9 mph 1016.2mb 71f 60f
12:18 2 13 mph 1016.2mb 71f 60f
12:12 9 11 mph 1016.2mb 71f 60f
12:06 10 11 mph 1016.2mb 71f 60f
12:00 7 10 mph 1016.2mb 71f 59f
lun. 07/24 11:54 7 10 mph 1016.2mb 71f 59f
11:48 8 13 mph 1016.2mb - -
11:42 10 13 mph 1016.1mb - -
11:36 11 15 mph 1016mb - -
11:30 8 11 mph 1016mb 71f 59f
11:24 7 9 mph 1016mb 71f 59f
11:18 6 9 mph 1016mb 71f 59f
11:12 6 9 mph 1015.9mb 71f 60f
11:06 3 8 mph 1015.8mb 71f 60f
11:00 3 5 mph 1015.8mb 71f 60f
10:54 7 10 mph 1015.8mb 71f 60f
10:48 5 9 mph 1015.8mb 71f 60f
10:42 6 8 mph 1015.8mb 71f 60f
10:36 2 6 mph 1015.8mb 71f 60f
10:30 3 6 mph 1015.7mb 71f 60f
10:24 3 6 mph 1015.7mb 71f 60f
10:18 5 7 mph 1015.6mb 71f 60f
10:12 6 7 mph 1015.6mb 71f 60f
10:06 3 6 mph 1015.6mb 71f 60f
10:00 3 5 mph 1015.6mb 71f 60f
9:54 3 5 mph 1015.6mb 71f 61f
9:48 5 7 mph 1015.5mb 71f 61f
9:42 5 7 mph 1015.4mb 71f 62f
9:36 7 7 mph 1015.3mb 71f 62f
9:30 6 7 mph 1015.3mb 71f 62f
9:24 3 6 mph 1015.2mb 71f 62f
9:18 1 6 mph 1015.2mb 71f 63f
9:12 3 6 mph 1015.2mb 71f 63f
9:06 5 7 mph 1015.1mb 71f 63f
9:00 6 7 mph 1015mb 71f 63f
8:54 7 9 mph 1014.9mb 71f 63f
8:48 8 13 mph 1014.8mb 71f 64f
8:42 11 14 mph 1014.7mb 71f 64f
8:36 11 14 mph 1014.8mb 71f 64f
8:30 11 15 mph 1014.7mb 71f 64f
8:24 11 14 mph 1014.7mb 71f 65f
8:18 10 13 mph 1014.6mb 71f 65f
8:12 9 14 mph 1014.6mb 71f 65f
8:06 8 11 mph 1014.6mb 71f 66f
8:00 2 6 mph 1014.6mb 71f 68f
7:54 5 6 mph 1014.5mb 71f 67f
7:48 5 7 mph 1014.5mb 71f 67f
7:42 5 11 mph 1014.5mb 71f 67f
7:36 6 13 mph 1014.5mb 71f 67f
7:30 11 14 mph 1014.4mb 71f 66f
7:24 9 10 mph 1014.3mb 71f 67f
7:18 7 10 mph 1014.3mb 71f 68f
7:12 9 11 mph 1014.3mb 71f 67f
7:06 8 10 mph 1014.2mb 71f 67f
7:00 10 14 mph 1014.2mb 70f 67f
6:54 13 14 mph 1014.3mb 70f 66f
6:48 11 14 mph 1014.3mb 70f 67f
6:42 11 13 mph 1014.3mb 70f 67f
6:36 10 11 mph 1014.3mb 70f 68f
6:30 9 11 mph 1014.2mb 70f 68f
6:24 10 13 mph 1014.3mb 70f 67f
6:18 8 9 mph 1014.3mb 70f 69f
6:12 6 8 mph 1014.3mb 70f 69f
6:06 1 3 mph 1014.3mb 70f 71f
6:00 1 3 mph 1014.2mb 70f 71f
5:54 3 5 mph 1014.3mb 70f 71f
5:48 5 6 mph 1014.3mb 70f 70f
5:42 5 7 mph 1014.2mb 70f 70f
5:36 7 9 mph 1014.2mb 70f 70f
5:30 9 11 mph 1014.3mb 70f 68f
5:24 13 16 mph 1014.3mb 70f 68f
5:18 13 15 mph 1014.4mb 70f 67f
5:12 13 15 mph 1014.4mb 70f 68f
5:06 14 17 mph 1014.4mb 70f 67f
5:00 15 18 mph 1014.5mb 70f 67f
4:54 16 18 mph 1014.4mb 70f 66f
4:48 17 18 mph 1014.5mb 70f 65f
4:42 17 20 mph 1014.5mb 70f 66f
4:36 17 21 mph 1014.5mb 70f 65f
4:30 17 20 mph 1014.6mb 70f 65f
4:24 17 21 mph 1014.6mb 70f 65f
4:18 18 22 mph 1014.6mb 70f 65f
4:12 18 21 mph 1014.7mb 70f 65f
4:06 17 21 mph 1014.7mb 70f 65f
4:00 18 20 mph 1014.7mb 70f 65f
3:54 18 21 mph 1014.7mb 70f 65f
3:48 18 21 mph 1014.8mb 70f 64f
3:42 17 21 mph 1014.8mb 70f 65f
3:36 17 22 mph 1014.8mb 70f 65f
3:30 18 21 mph 1014.9mb 70f 65f
3:24 18 21 mph 1015mb 70f 65f
3:18 17 21 mph 1015mb 71f 65f
3:12 17 21 mph 1015.1mb 71f 65f
3:06 18 21 mph 1015.1mb 71f 65f
3:00 18 21 mph 1015.1mb 71f 66f
2:54 10 13 mph 1015.1mb 71f 69f
2:48 10 16 mph 1015.2mb 71f 69f
2:42 14 21 mph 1015.1mb 71f 67f
2:36 17 21 mph 1015.1mb 71f 65f
2:30 16 20 mph 1015.2mb 71f 66f
2:24 14 16 mph 1015.2mb 71f 67f
2:18 13 16 mph 1015.2mb 71f 67f
2:12 14 16 mph 1015.2mb 71f 67f
2:06 15 17 mph 1015.2mb 71f 67f
2:00 15 18 mph 1015.3mb 71f 66f
1:54 16 21 mph 1015.3mb 71f 66f
1:48 17 21 mph 1015.3mb 71f 65f
1:42 20 22 mph 1015.4mb 71f 64f
1:36 18 22 mph 1015.5mb 71f 64f
1:30 18 22 mph 1015.6mb 71f 64f
1:24 20 22 mph 1015.6mb 71f 64f
1:18 18 20 mph 1015.6mb 72f 64f
1:12 17 20 mph 1015.7mb 72f 64f
1:06 16 18 mph 1015.7mb 72f 65f
1:00 15 18 mph 1015.8mb 72f 64f
12:54 15 17 mph 1015.8mb 72f 65f
12:48 16 18 mph 1015.8mb 72f 65f
12:42 13 17 mph 1015.9mb 72f 66f
12:36 14 16 mph 1015.9mb 72f 65f
12:30 14 15 mph 1015.9mb 72f 65f
12:24 14 16 mph 1015.9mb 72f 65f
12:18 15 17 mph 1016mb 71f 64f
12:12 15 17 mph 1016mb 71f 64f
12:06 15 16 mph 1016mb 71f 64f
12:00 14 16 mph 1016mb 71f 64f
11:54 14 16 mph 1016mb 71f 64f
11:48 14 15 mph 1016.1mb 71f 65f
11:42 13 14 mph 1016.1mb 71f 65f
11:36 11 14 mph 1016.1mb 71f 64f
11:30 11 14 mph 1016.1mb 71f 64f
11:24 13 14 mph 1016.2mb 71f 64f
11:18 11 14 mph 1016.2mb 71f 64f
11:12 11 13 mph 1016.3mb 71f 64f
11:06 10 11 mph 1016.4mb 71f 64f
11:00 9 10 mph 1016.4mb 71f 63f
10:54 8 9 mph 1016.4mb 71f 63f
10:48 6 8 mph 1016.5mb 71f 63f
10:42 6 7 mph 1016.5mb 71f 63f
10:36 6 7 mph 1016.5mb 71f 62f
10:30 5 6 mph 1016.6mb 71f 62f
10:24 6 6 mph 1016.6mb 71f 62f
10:18 5 7 mph 1016.6mb 71f 62f
10:12 5 6 mph 1016.7mb 71f 61f
10:06 3 5 mph 1016.7mb 71f 61f
10:00 5 6 mph 1016.7mb 71f 61f
9:54 3 6 mph 1016.8mb 71f 61f
9:48 3 5 mph 1016.8mb 71f 61f
9:42 2 3 mph 1016.8mb 71f 61f
9:36 1 2 mph 1016.8mb 71f 61f
9:30  -  2 mph 1016.9mb 71f 61f
9:24 1 3 mph 1016.9mb 71f 60f
9:18 1 2 mph 1017mb 70f 61f
9:12  -  2 mph 1017mb 70f 61f
9:06 1 2 mph 1017mb 70f 61f
9:00  -  2 mph 1017mb 70f 60f
8:54  -  2 mph 1017mb 70f 60f
8:48 1 3 mph 1017mb 70f 59f
8:42 2 5 mph 1017mb 70f 58f
8:36 3 5 mph 1017mb 70f 58f
8:30 3 5 mph 1017mb 70f 58f
8:24 2 3 mph 1016.9mb 70f 58f
8:18 3 5 mph 1016.9mb 70f 58f
8:12 5 6 mph 1017mb 70f 58f
8:06 3 6 mph 1017.1mb 70f 58f
8:00 6 7 mph 1017.1mb 69f 58f
7:54 2 5 mph 1017.1mb 69f 58f
7:48 3 6 mph 1017.1mb 69f 58f
7:42 2 6 mph 1017mb 69f 58f
7:36 3 5 mph 1017.1mb 69f 58f
7:30 2 6 mph 1017.1mb 69f 58f
7:24 5 6 mph 1017mb 69f 58f
7:18 2 5 mph 1017mb 69f 58f
7:12 3 3 mph 1016.9mb 69f 58f
7:06 2 3 mph 1016.9mb 69f 58f
7:00 2 5 mph 1016.9mb 69f 58f
6:54 2 3 mph 1016.9mb 69f 58f
6:48 3 3 mph 1016.9mb 69f 58f
6:42 2 3 mph 1016.8mb 69f 58f
6:36 3 3 mph 1016.8mb 69f 57f
6:30 2 3 mph 1016.8mb 69f 57f
6:24 2 3 mph 1016.8mb 69f 57f
6:18 2 3 mph 1016.7mb 69f 57f
6:12 2 3 mph 1016.6mb 69f 57f
6:06 3 3 mph 1016.6mb 69f 57f
6:00 2 3 mph 1016.6mb 69f 57f
5:54 1 2 mph 1016.6mb 69f 57f
5:48 2 3 mph 1016.6mb 69f 56f
5:42 2 2 mph 1016.6mb 69f 56f
5:36 1 3 mph 1016.6mb 69f 56f
5:30 2 3 mph 1016.6mb 69f 56f
5:24 3 5 mph 1016.5mb 69f 56f
5:18 2 6 mph 1016.5mb 69f 56f
5:12 5 5 mph 1016.5mb 69f 56f
5:06 2 3 mph 1016.5mb 69f 56f
5:00 2 3 mph 1016.5mb 69f 57f
4:54 2 5 mph 1016.5mb 69f 56f
4:48 2 3 mph 1016.5mb 69f 56f
4:42 1 2 mph 1016.5mb 69f 56f
4:36 2 3 mph 1016.5mb 69f 56f
4:30 2 3 mph 1016.5mb 70f 56f
4:24 3 6 mph 1016.5mb 70f 56f
4:18 3 5 mph 1016.5mb 70f 56f
4:12 2 3 mph 1016.4mb 70f 56f
4:06 1 3 mph 1016.4mb 70f 56f
4:00 3 3 mph 1016.4mb 70f 57f
3:54 1 3 mph 1016.5mb 70f 57f
3:48 1 2 mph 1016.6mb 70f 56f
3:42 2 3 mph 1016.6mb 70f 56f
3:36 2 3 mph 1016.6mb 70f 56f
3:30 2 5 mph 1016.6mb 70f 57f
3:24 3 5 mph 1016.6mb 70f 57f
3:18 3 5 mph 1016.7mb 70f 57f
3:12 3 3 mph 1016.7mb 70f 57f
3:06 3 5 mph 1016.7mb 69f 57f
3:00  -  3 mph 1016.7mb 69f 57f
2:54 3 5 mph 1016.7mb 69f 57f
2:48 2 5 mph 1016.7mb 69f 57f
2:42 1 3 mph 1016.7mb 69f 57f
2:36  -  5 mph 1016.8mb 69f 57f
2:30 3 6 mph 1016.8mb 69f 57f
2:24 2 5 mph 1016.8mb 69f 56f
2:18 5 7 mph 1016.9mb 69f 56f
2:12 5 7 mph 1016.9mb 69f 56f
2:06 6 7 mph 1017mb 70f 56f
2:00 6 7 mph 1017mb 70f 56f
1:54 5 7 mph 1017.1mb 70f 56f
1:48 6 7 mph 1017mb 70f 56f
1:42 3 5 mph 1017mb 70f 57f
1:36 3 5 mph 1017mb 71f 57f
1:30 3 5 mph 1016.9mb 71f 56f
1:24 3 5 mph 1016.9mb 71f 56f
1:18 2 5 mph 1017mb 71f 56f
1:12 5 6 mph 1017mb 71f 56f
1:06 5 7 mph 1017.1mb 71f 56f
1:00 6 8 mph 1017.1mb 71f 56f
12:54 6 7 mph 1017.1mb 71f 56f
12:48 6 7 mph 1017mb 71f 56f
12:42 5 6 mph 1017mb 71f 56f
12:36 5 7 mph 1017mb 71f 56f
12:30 6 7 mph 1017mb 71f 57f
12:24 6 6 mph 1017.1mb 71f 57f
12:18 6 6 mph 1017.1mb 71f 57f
12:12 5 6 mph 1017mb 71f 58f
12:06 5 6 mph 1017mb 71f 58f
12:00 3 5 mph 1017mb 71f 58f
dim. 07/23 11:54 5 5 mph 1017mb 71f 58f
11:48 3 5 mph 1017mb 71f 58f
11:42 3 3 mph 1017.1mb 71f 58f
11:36 5 6 mph 1017.1mb 72f 58f
11:30 3 5 mph 1017mb 72f 59f
11:24 5 6 mph 1017mb 72f 60f
11:18 5 6 mph 1017mb 72f 59f
11:12 3 6 mph 1017.1mb 72f 59f
11:06 3 8 mph 1017.1mb 72f 60f
11:00 7 9 mph 1017.1mb 71f 60f
10:54 6 8 mph 1017.2mb 72f 60f
10:48 9 11 mph 1017.2mb 72f -
10:42 7 9 mph 1017.3mb 72f -
10:36 8 11 mph 1017.3mb 72f -
10:30 9 11 mph 1017.4mb 72f 60f
10:24 6 13 mph 1017.5mb 71f 60f
10:18 8 11 mph 1017.5mb 71f 60f
10:12 10 13 mph 1017.5mb 71f 60f
10:06 11 14 mph 1017.6mb 72f 60f
10:00 8 13 mph 1017.6mb 72f 60f
9:54 10 11 mph 1017.6mb 72f 60f
9:48 9 13 mph 1017.6mb 71f 60f
9:42 7 11 mph 1017.6mb 71f 61f
9:36 8 16 mph 1017.5mb 71f 61f
9:30 10 14 mph 1017.5mb 71f 61f
9:24 7 13 mph 1017.5mb 71f 61f
9:18 8 14 mph 1017.4mb 71f 61f
9:12 9 11 mph 1017.4mb 71f 61f
9:06 9 14 mph 1017.3mb 71f 61f
9:00 7 11 mph 1017.3mb 71f 61f
8:54 9 11 mph 1017.3mb 71f 61f
8:48 6 11 mph 1017.4mb 71f 62f
8:42 8 11 mph 1017.4mb 71f 62f
8:36 9 18 mph 1017.4mb 71f 62f
8:30 10 18 mph 1017.3mb 71f 62f
8:24 9 10 mph 1017.4mb 71f 62f
8:18 8 10 mph 1017.4mb 71f 62f
8:12 7 9 mph 1017.4mb 71f 62f
8:06 9 11 mph 1017.4mb 71f 62f
8:00 8 13 mph 1017.4mb 71f 63f
7:54 9 14 mph 1017.4mb 71f 63f
7:48 9 13 mph 1017.4mb 71f 63f
7:42 10 14 mph 1017.4mb 71f 63f
7:36 9 11 mph 1017.4mb 71f 63f
7:30 8 11 mph 1017.3mb 71f 64f
7:24 9 13 mph 1017.4mb 71f 64f
7:18 8 11 mph 1017.3mb 71f 64f
7:12 9 13 mph 1017.3mb 71f 64f
7:06 7 11 mph 1017.3mb 71f 64f
7:00 7 9 mph 1017.3mb 71f 64f
6:54 7 15 mph 1017.3mb 71f 64f
6:48 8 9 mph 1017.2mb 71f 64f
6:42 9 15 mph 1017.3mb 71f 64f
6:36 10 14 mph 1017.2mb 71f 64f
6:30 10 18 mph 1017.3mb 71f 64f
6:24 14 17 mph 1017.3mb 71f 64f
6:18 13 16 mph 1017.4mb 71f 64f
6:12 14 17 mph 1017.4mb 71f 64f
6:06 13 18 mph 1017.5mb 71f 65f
6:00 14 21 mph 1017.5mb 71f 65f
5:54 14 22 mph 1017.5mb 71f 65f
5:48 17 22 mph 1017.5mb 71f 64f
5:42 20 22 mph 1017.6mb 71f 64f
5:36 18 22 mph 1017.6mb 70f 64f
5:30 16 22 mph 1017.7mb 70f 64f
5:24 17 22 mph 1017.8mb 70f 65f
5:18 10 14 mph 1017.9mb 70f 65f
5:12 13 15 mph 1017.9mb 70f 65f
5:06 11 16 mph 1018mb 70f 65f
5:00 11 15 mph 1018mb 70f 65f
4:54 11 15 mph 1018mb 70f 65f
4:48 11 17 mph 1018mb 70f 65f
4:42 11 16 mph 1018mb 70f 65f
4:36 11 16 mph 1018mb 70f 65f
4:30 11 15 mph 1018.1mb 70f 65f
4:24 11 14 mph 1018.1mb 70f 65f
4:00 10 15 mph 1018.1mb 71f 65f
3:54 11 16 mph 1018.2mb 71f 65f
3:48 14 16 mph 1018.1mb 71f 65f
3:42 11 15 mph 1018.2mb 71f 66f
3:36 11 14 mph 1018.2mb 70f 66f
3:30 9 13 mph 1018.2mb 71f 66f
3:24 10 13 mph 1018.2mb 71f 66f
3:18 13 15 mph 1018.2mb 71f 66f
3:12 13 15 mph 1018.2mb 71f 66f
3:06 14 15 mph 1018.2mb 71f 65f
3:00 13 14 mph 1018.3mb 71f 66f
2:54 11 15 mph 1018.3mb 71f 66f
2:48 13 16 mph 1018.3mb 71f 66f
2:42 11 14 mph 1018.3mb 71f 66f
2:36 11 14 mph 1018.4mb 71f 66f
2:30 9 11 mph 1018.4mb 71f 67f
2:24 6 8 mph 1018.4mb 71f 67f
2:18 5 7 mph 1018.4mb 71f 67f
2:12 3 6 mph 1018.4mb 71f 66f
2:06 6 8 mph 1018.4mb 71f 66f
2:00 5 7 mph 1018.4mb 72f 66f
1:54 6 7 mph 1018.5mb 72f 65f
1:48 5 6 mph 1018.6mb 72f 66f
1:42 3 6 mph 1018.6mb 72f 65f
1:36 5 7 mph 1018.7mb 72f 65f
1:30 3 6 mph 1018.8mb 72f 65f
1:24 5 6 mph 1018.8mb 72f 65f
1:18 5 6 mph 1018.9mb 72f 65f
1:12 5 6 mph 1018.9mb 72f 65f
1:06 6 6 mph 1019mb 72f 64f
1:00 5 7 mph 1019.1mb 72f 64f
12:54 3 6 mph 1019.1mb 72f 64f
12:48 1 2 mph 1019.1mb 72f 65f
12:42 1 3 mph 1019.2mb 72f 65f
12:36  -  5 mph 1019.2mb 72f 64f
12:30 5 6 mph 1019.3mb 72f 64f
12:24 1 5 mph 1019.3mb 72f 64f
12:18 5 7 mph 1019.3mb 72f 63f
12:12 5 10 mph 1019.3mb 72f 64f
12:06 5 7 mph 1019.4mb 71f 64f
12:00 5 9 mph 1019.4mb 71f 63f
11:54 7 9 mph 1019.5mb 71f 63f
11:48 7 11 mph 1019.6mb 71f 63f
11:42 7 10 mph 1019.6mb 71f 63f
11:36 6 8 mph 1019.6mb 71f 62f
11:30 7 9 mph 1019.5mb 71f 62f
11:24 10 14 mph 1019.5mb 71f 62f
11:18 6 9 mph 1019.6mb 71f 62f
11:12 7 8 mph 1019.6mb 71f 62f
11:06 6 8 mph 1019.7mb 71f 62f
11:00 5 6 mph 1019.7mb 71f 62f
10:54 3 6 mph 1019.7mb 71f 62f
10:48 2 6 mph 1019.6mb 71f 62f
10:42 2 5 mph 1019.6mb 71f 62f
10:36 5 7 mph 1019.6mb 71f 61f
10:30 5 6 mph 1019.6mb 71f 61f
10:24 2 6 mph 1019.6mb 71f 61f
10:18 1 6 mph 1019.6mb 71f 61f
10:12 6 7 mph 1019.6mb 71f 60f
10:06 6 8 mph 1019.6mb 71f 61f
10:00 7 8 mph 1019.6mb 71f 60f
9:54 6 9 mph 1019.7mb 71f 60f
9:48 7 10 mph 1019.6mb 71f 60f
9:42 6 10 mph 1019.6mb 71f 60f
9:36 6 11 mph 1019.6mb 71f 60f
9:30 8 10 mph 1019.6mb 71f 60f
9:24 7 10 mph 1019.6mb 71f 60f
9:18 8 13 mph 1019.6mb 71f 60f
9:12 9 14 mph 1019.6mb 71f 60f
9:06 6 8 mph 1019.7mb 71f 61f
9:00 6 8 mph 1019.7mb 71f 60f
8:54 5 7 mph 1019.7mb 70f 60f
8:48 7 8 mph 1019.7mb 70f 60f
8:42 5 8 mph 1019.7mb 70f 61f
8:36 5 6 mph 1019.6mb 70f 61f
8:30 6 8 mph 1019.6mb 69f 60f
8:24 5 7 mph 1019.6mb 69f 60f
8:18 3 8 mph 1019.6mb 69f 60f
8:12 6 11 mph 1019.5mb 69f 60f
8:06 9 13 mph 1019.5mb 69f 60f
8:00 8 10 mph 1019.5mb 69f 60f
7:54 9 14 mph 1019.5mb 69f 60f
7:48 8 11 mph 1019.5mb 69f 60f
7:42 5 7 mph 1019.5mb 69f 60f
7:36 6 13 mph 1019.4mb 69f 60f
7:30 7 14 mph 1019.4mb 69f 60f
7:24 5 10 mph 1019.5mb 69f 60f
7:18 8 9 mph 1019.4mb 69f 60f
7:12 7 10 mph 1019.4mb 69f 60f
7:06 7 9 mph 1019.2mb 69f 60f
7:00 7 10 mph 1019.1mb 69f 60f
6:54 9 10 mph 1019.1mb 69f 60f
6:48 7 9 mph 1019.1mb 69f 61f
6:42 7 8 mph 1019mb 69f 61f
6:36 5 10 mph 1018.9mb 69f 61f
6:30 6 7 mph 1018.9mb 69f 61f
6:24 5 10 mph 1018.9mb 69f 61f
6:18 10 13 mph 1018.9mb 69f 60f
6:12 8 11 mph 1018.9mb 69f 61f
6:06 8 14 mph 1018.9mb 69f 61f
6:00 11 13 mph 1018.8mb 69f 61f
5:54 9 16 mph 1018.9mb 69f 60f
5:48 13 15 mph 1018.9mb 69f 60f
5:42 10 16 mph 1018.8mb 69f 61f
5:36 13 15 mph 1018.8mb 69f 61f
5:30 14 15 mph 1018.8mb 69f 61f
5:24 8 11 mph 1018.8mb 69f 60f
5:18 10 13 mph 1018.8mb 69f 60f
5:12 8 13 mph 1018.9mb 69f 60f
5:06 9 11 mph 1018.8mb 69f 60f
5:00 10 14 mph 1018.8mb 69f 60f
4:54 11 14 mph 1018.8mb 69f 61f
4:48 11 17 mph 1018.8mb 69f 60f
4:42 9 16 mph 1018.8mb 69f 60f
4:36 11 15 mph 1018.9mb 69f 61f
4:30 11 18 mph 1018.9mb 69f 61f
4:24 14 18 mph 1018.9mb 69f 61f
4:18 13 20 mph 1018.9mb 69f 61f
4:12 9 14 mph 1018.9mb 69f 61f
4:06 10 13 mph 1018.9mb 69f 61f
4:00 13 18 mph 1019mb 69f 61f
3:54 15 20 mph 1019mb 69f 61f
3:48 13 16 mph 1019mb 69f 61f
3:42 14 17 mph 1019mb 69f 60f
3:36 15 20 mph 1019mb 70f 61f
3:30 10 16 mph 1019mb 70f 61f
3:24 13 16 mph 1018.9mb 70f 61f
3:18 9 16 mph 1019mb 70f 61f
3:12 14 16 mph 1019mb 70f 60f
3:06 15 18 mph 1019mb 70f 61f
3:00 14 15 mph 1019mb 70f 61f
2:54 10 16 mph 1019mb 70f 61f
2:48 16 18 mph 1018.9mb 70f 61f
2:42 15 17 mph 1018.9mb 70f 61f
2:36 16 18 mph 1019mb 70f 61f
2:30 16 18 mph 1019mb 70f 60f
2:24 10 14 mph 1019mb 70f 61f
2:18 10 15 mph 1019mb 69f 61f
2:12 13 16 mph 1019mb 69f 61f
2:06 10 13 mph 1019.1mb 69f 61f
2:00 7 9 mph 1019.1mb 69f 62f
1:54 6 8 mph 1019.1mb 69f 62f
1:48 6 8 mph 1019.1mb 69f 62f
1:42 6 7 mph 1019.2mb 69f 62f
1:36 6 7 mph 1019.2mb 69f 62f
1:30 6 8 mph 1019.3mb 69f 62f
1:24 6 7 mph 1019.3mb 69f 62f
1:18 7 8 mph 1019.4mb 69f 62f
1:12 7 9 mph 1019.4mb 69f 62f
1:06 6 8 mph 1019.4mb 70f 62f
1:00 7 8 mph 1019.4mb 70f 62f
12:54 6 9 mph 1019.4mb 70f 62f
12:48 7 8 mph 1019.4mb 70f 63f
12:42 5 7 mph 1019.4mb 70f 63f
12:36 5 7 mph 1019.4mb 70f 63f
12:30 5 7 mph 1019.5mb 70f 63f
12:24 5 6 mph 1019.5mb 70f 63f
12:18 6 7 mph 1019.5mb 70f 63f
12:12 6 7 mph 1019.5mb 70f 64f
12:06 6 7 mph 1019.5mb 70f 64f
12:00 6 7 mph 1019.5mb 71f 64f
sam. 07/22 11:54 7 9 mph 1019.5mb 71f 64f
11:48 6 9 mph 1019.5mb - -
11:42 9 11 mph 1019.5mb - -
11:36 8 10 mph 1019.5mb - -
11:30 8 10 mph 1019.5mb 72f 64f
11:24 9 11 mph 1019.6mb 72f 64f
11:18 9 11 mph 1019.6mb 72f 64f
11:12 8 11 mph 1019.6mb 72f 64f
11:06 11 15 mph 1019.7mb 72f 64f
11:00 9 11 mph 1019.7mb 72f 64f
10:54 9 14 mph 1019.7mb 72f 64f
10:48 9 16 mph 1019.7mb 72f -
10:42 10 15 mph 1019.7mb 72f -
10:36 9 13 mph 1019.8mb 72f -
10:30 9 13 mph 1019.8mb 72f 65f
10:24 9 14 mph 1019.7mb 72f 65f
10:18 7 9 mph 1019.7mb 72f 65f
10:12 6 7 mph 1019.8mb 72f 65f
10:06 6 8 mph 1019.7mb 72f 65f
10:00 6 9 mph 1019.8mb 72f 65f
9:54 9 10 mph 1019.7mb 72f 65f
9:48 7 9 mph 1019.8mb 72f 66f
9:42 6 9 mph 1019.7mb 72f 66f
9:36 9 11 mph 1019.8mb 72f 66f
9:30 9 10 mph 1019.8mb 72f 66f
9:24 7 9 mph 1019.8mb 72f 66f
9:18 8 10 mph 1019.7mb 72f 67f
9:12 9 10 mph 1019.6mb 72f 66f
9:06 8 10 mph 1019.5mb 72f 67f
9:00 9 10 mph 1019.5mb 72f 67f
8:54 8 9 mph 1019.5mb 72f 67f
8:48 8 13 mph 1019.4mb 72f 67f
8:42 8 15 mph 1019.4mb 72f 68f
8:36 10 14 mph 1019.4mb 72f 68f
8:30 8 13 mph 1019.4mb 72f 69f
8:24 7 9 mph 1019.4mb 72f 69f
8:18 9 10 mph 1019.4mb 72f 69f
8:12 9 11 mph 1019.4mb 72f 69f
8:06 9 14 mph 1019.4mb 72f 69f
8:00 9 11 mph 1019.3mb 72f 69f
7:54 10 13 mph 1019.3mb 72f 70f
7:48 9 10 mph 1019.3mb 72f 70f
7:42 8 11 mph 1019.2mb 72f 71f
7:36 9 10 mph 1019.2mb 72f 71f
7:30 9 10 mph 1019.2mb 72f 71f
7:24 3 9 mph 1019.2mb 72f 72f
7:18 6 8 mph 1019.2mb 72f 72f
7:12 6 8 mph 1019.2mb 72f 72f
7:06 6 8 mph 1019.2mb 71f 71f
7:00 7 8 mph 1019.2mb 71f 71f
6:54 5 7 mph 1019.2mb 71f 72f
6:48 6 8 mph 1019.2mb 71f 71f
6:42 7 8 mph 1019.3mb 71f 71f
6:36 6 10 mph 1019.2mb 71f 71f
6:30 9 11 mph 1019.3mb 71f 71f
6:24 9 13 mph 1019.4mb 71f 70f
6:18 13 14 mph 1019.5mb 71f 69f
6:12 11 14 mph 1019.5mb 71f 70f
6:06 13 15 mph 1019.5mb 71f 70f
6:00 13 14 mph 1019.5mb 72f 70f
5:54 11 14 mph 1019.6mb 72f 70f
5:48 13 14 mph 1019.6mb 71f 69f
5:42 11 14 mph 1019.6mb 71f 70f
5:36 11 14 mph 1019.6mb 71f 69f
5:30 14 15 mph 1019.7mb 71f 69f
5:24 13 15 mph 1019.8mb 71f 69f
5:18 14 16 mph 1019.8mb 71f 69f
5:12 14 15 mph 1019.8mb 71f 69f
5:06 14 16 mph 1019.9mb 71f 69f
5:00 14 16 mph 1019.9mb 70f 69f
4:54 14 16 mph 1020mb 70f 69f
4:48 14 15 mph 1020mb 70f 69f
4:42 14 16 mph 1020.1mb 70f 69f
4:36 14 16 mph 1020.2mb 70f 68f
4:30 14 17 mph 1020.3mb 70f 68f
4:24 14 17 mph 1020.3mb 70f 68f
4:00 15 20 mph 1020.5mb 70f 67f
3:54 15 17 mph 1020.5mb 70f 67f
3:48 15 18 mph 1020.6mb 70f 67f
3:42 15 18 mph 1020.7mb 70f 67f
3:36 15 20 mph 1020.8mb 70f 67f
3:30 15 17 mph 1020.8mb 70f 67f
3:24 15 17 mph 1020.9mb 71f 67f
3:18 15 20 mph 1020.9mb 71f 67f
3:12 16 18 mph 1021mb 71f 67f
3:06 14 18 mph 1021mb 70f 67f
3:00 14 17 mph 1021mb 70f 67f
2:54 15 16 mph 1021.1mb 70f 67f
2:48 14 16 mph 1021.1mb 70f 67f
2:42 13 15 mph 1021.2mb 70f 67f
2:36 13 15 mph 1021.2mb 70f 67f
2:30 13 15 mph 1021.2mb 70f 67f
2:24 11 16 mph 1021.3mb 70f 67f
2:18 11 16 mph 1021.4mb 70f 67f
2:12 13 15 mph 1021.4mb 70f 67f
2:06 11 15 mph 1021.4mb 70f 67f
2:00 14 16 mph 1021.4mb 71f 67f
1:54 13 16 mph 1021.4mb 71f 67f
1:48 14 15 mph 1021.4mb 71f 66f
1:42 13 15 mph 1021.5mb 71f 66f
1:36 14 15 mph 1021.6mb 70f 66f
1:30 13 15 mph 1021.6mb 70f 66f
1:24 13 15 mph 1021.7mb 70f 66f
1:18 13 15 mph 1021.7mb 70f 66f
1:12 14 16 mph 1021.8mb 71f 66f
1:06 14 15 mph 1021.8mb 71f 66f
1:00 14 16 mph 1021.8mb 71f 66f
12:54 13 15 mph 1021.9mb 71f 66f
12:48 13 15 mph 1021.9mb 71f 66f
12:42 14 15 mph 1021.9mb 71f 66f
12:36 13 15 mph 1022mb 71f 66f
12:30 13 14 mph 1022mb 72f 66f
12:24 11 13 mph 1022mb 72f 67f
12:18 10 13 mph 1022mb 72f 67f
12:12 11 14 mph 1022mb 72f 66f
12:06 11 13 mph 1022mb 72f 66f
12:00 10 13 mph 1022.1mb 72f 67f
11:54 10 13 mph 1022.1mb 72f 67f
11:48 11 13 mph 1022.1mb 72f 66f
11:42 11 13 mph 1022.1mb 72f 66f
11:36 10 11 mph 1022.1mb 71f 66f
11:30 8 9 mph 1022.1mb 71f 66f
11:24 9 10 mph 1022mb 71f 66f
11:18 8 10 mph 1022mb 71f 67f
11:12 7 8 mph 1022.1mb 71f 67f
11:06 6 7 mph 1022.1mb 71f 67f
11:00 6 7 mph 1022mb 71f 67f
10:54 6 6 mph 1022mb 71f 67f
10:48 5 6 mph 1022mb 71f 67f
10:42 5 6 mph 1022mb 71f 67f
10:36 3 6 mph 1022mb 71f 67f
10:30 3 5 mph 1022mb 71f 66f
10:24 2 5 mph 1022.1mb 71f 67f
10:18 3 5 mph 1022.1mb 71f 66f
10:12 2 3 mph 1022mb 71f 66f
10:06 2 5 mph 1022.1mb 71f 66f
10:00 2 3 mph 1022.1mb 71f 66f
9:54 2 3 mph 1022.1mb 71f 67f
9:48 2 2 mph 1022.1mb 71f 66f
9:42 2 3 mph 1022.1mb 71f 66f
9:36 2 5 mph 1022.1mb 71f 65f
9:30 3 3 mph 1022.1mb 71f 65f
9:24 2 5 mph 1022.2mb 71f 65f
9:18 3 5 mph 1022.2mb 71f 65f
9:12 2 5 mph 1022.3mb 71f 65f
9:06 5 6 mph 1022.3mb 71f 65f
9:00 2 5 mph 1022.3mb 71f 65f
8:54 3 6 mph 1022.3mb 71f 65f
8:48  -  3 mph 1022.3mb 70f 66f
8:42 1 5 mph 1022.3mb 70f 65f
8:36 3 5 mph 1022.3mb 70f 65f
8:30 3 6 mph 1022.2mb 70f 65f
8:24 2 6 mph 1022.2mb 70f 65f
8:18 3 6 mph 1022.1mb 70f 64f
8:12 3 5 mph 1022.1mb 70f 64f
8:06 3 5 mph 1022.1mb 70f 64f
8:00 3 6 mph 1022.1mb 70f 64f
7:54 2 5 mph 1022.2mb 70f 64f
7:48 3 3 mph 1022.1mb 70f 64f
7:42 2 3 mph 1022mb 69f 64f
7:36 2 2 mph 1022mb 69f 64f
7:30 2 3 mph 1021.9mb 69f 63f
7:24 2 2 mph 1021.9mb 69f 63f
7:18 2 3 mph 1021.9mb 69f 63f
7:12 2 2 mph 1021.9mb 69f 63f
7:06 2 3 mph 1021.8mb 69f 63f
7:00 3 3 mph 1021.7mb 68f 63f
6:54 2 5 mph 1021.7mb 68f 63f
6:48 3 5 mph 1021.7mb 68f 63f
6:42 2 3 mph 1021.7mb 68f 63f
6:36 2 3 mph 1021.6mb 68f 63f
6:30 2 3 mph 1021.6mb 68f 62f
6:24 2 5 mph 1021.6mb 68f 62f
6:18 2 3 mph 1021.6mb 68f 62f
6:12 3 5 mph 1021.5mb 68f 62f
6:06 3 5 mph 1021.5mb 68f 62f
6:00 3 5 mph 1021.4mb 68f 62f
5:54 3 3 mph 1021.4mb 68f 63f
5:48 3 5 mph 1021.4mb 68f 62f
5:42 3 3 mph 1021.3mb 68f 62f
5:36 2 3 mph 1021.3mb 68f 62f
5:30 2 3 mph 1021.2mb 68f 62f
5:24 2 3 mph 1021.2mb 68f 62f
5:18 2 3 mph 1021.3mb 68f 62f
5:12 3 5 mph 1021.2mb 68f 62f
5:06 3 5 mph 1021.2mb 68f 62f
5:00 3 5 mph 1021.2mb 68f 62f
4:54 3 5 mph 1021.1mb 68f 63f
4:48 2 2 mph 1021.1mb 68f 63f
4:42 1 2 mph 1021.1mb 68f 62f
4:36 1 1 mph 1021.1mb 68f 62f
4:30 1 2 mph 1021.1mb 68f 62f
4:24 2 2 mph 1021mb 68f 62f
4:18 2 3 mph 1021mb 68f 62f
4:12 2 3 mph 1021mb 68f 62f
4:06 2 2 mph 1021.1mb 68f 62f
4:00 1 2 mph 1021.2mb 68f 62f
3:54 1 2 mph 1021.2mb 68f 62f
3:48 1 2 mph 1021.2mb 68f 62f
3:42 2 3 mph 1021.2mb 68f 62f
3:36 3 3 mph 1021.1mb 68f 62f
3:30 2 3 mph 1021.2mb 68f 62f
3:24 2 3 mph 1021.2mb 68f 62f
3:18 2 3 mph 1021.2mb 68f 62f
3:12 2 3 mph 1021.2mb 68f 62f
3:06 2 3 mph 1021.2mb 68f 62f
3:00 3 5 mph 1021.2mb 69f 62f
2:54 2 5 mph 1021.2mb 69f 62f
2:48 3 5 mph 1021.3mb 69f 62f
2:42 3 5 mph 1021.3mb 69f 62f